Location: Maddington
(51.2000°N, 1.9167°W)
Time: 09:44:20
(UTC+00:00)

NOSS 2-2 (E) - Visible Passes

Search period start: 17 January 2021 00:00
Search period end: 27 January 2021 00:00
Orbit: 465 x 1741 km, 63.3° (Epoch: 09 January)

Date Brightness Start Highest point End Pass type
(mag) Time Alt. Az. Time Alt. Az. Time Alt. Az.
17 Jan 5.5 18:45:20 10° NW 18:48:37 20° N 18:49:10 19° NNE visible
17 Jan 6.5 20:35:49 10° NW 20:36:32 14° NNW 20:36:32 14° NNW visible
18 Jan 5.5 17:59:27 10° NW 18:02:30 19° N 18:05:02 13° NE visible
18 Jan 5.7 19:50:19 10° NW 19:52:25 22° NNW 19:52:25 22° NNW visible
19 Jan 5.3 17:13:24 10° NW 17:16:23 19° N 17:19:55 10° NE visible
19 Jan 5.3 19:04:45 10° NW 19:08:18 24° NNE 19:08:18 24° NNE visible
19 Jan 6.6 20:54:56 10° NW 20:55:40 15° NW 20:55:40 15° NW visible
20 Jan 5.4 18:19:06 10° NW 18:22:33 21° NNE 18:24:12 18° NE visible
20 Jan 5.7 20:09:26 10° NW 20:11:35 26° NNW 20:11:35 26° NNW visible
21 Jan 5.4 17:33:18 10° NW 17:36:27 19° N 17:40:09 10° NE visible
21 Jan 5.1 19:23:57 10° NW 19:27:33 33° N 19:27:33 33° N visible
21 Jan 6.7 21:14:07 10° NW 21:14:55 15° NW 21:14:55 15° NW visible
22 Jan 5.2 18:38:25 10° NW 18:42:29 27° NNE 18:43:32 26° NE visible
22 Jan 5.7 20:28:34 10° NW 20:30:55 30° NW 20:30:55 30° NW visible
23 Jan 5.3 17:52:49 10° NW 17:56:28 23° NNE 17:59:34 15° ENE visible
23 Jan 4.7 19:43:03 10° NW 19:46:58 48° N 19:46:58 48° N visible
23 Jan 6.8 21:33:29 10° NW 21:34:22 15° WNW 21:34:22 15° WNW visible
24 Jan 4.7 18:57:34 10° NW 19:02:14 40° NNE 19:03:05 38° NE visible
24 Jan 5.8 20:47:47 10° NW 20:50:28 32° WNW 20:50:28 32° WNW visible
25 Jan 5.0 18:12:03 10° NW 18:16:20 31° NNE 18:19:17 21° ENE visible
25 Jan 4.5 20:02:12 10° NW 20:06:41 68° NW 20:06:41 68° NW visible
25 Jan 7.0 21:53:18 10° WNW 21:54:05 13° WNW 21:54:05 13° WNW visible
26 Jan 5.2 17:26:30 10° NW 17:30:21 25° NNE 17:35:12 10° ENE visible
26 Jan 4.3 19:16:40 10° NW 19:21:48 65° NE 19:23:00 54° E visible
26 Jan 6.1 21:07:16 10° WNW 21:10:24 29° W 21:10:24 29° W visible
